Regional Weather Roundup
Issued by NWS

Home | Current Version | Previous Version | Text Only | Print | Product List | Glossary Off
Versions: 1 2 3 4 5 6 7 8 9 10 11 12 13 14 15 16 17 18 19 20 21 22 23 24 25 26 27 28 29 30 31 32 33 34 35 36 37 38 39 40 41 42 43 44 45 46 47 48 49 50

134
ASUS43 KOAX 241802
RWRNE

WEATHER ROUNDUP FOR NEBRASKA
NATIONAL WEATHER SERVICE OMAHA NE
100 PM CDT WED MAY 24 2017

NOTES: SATELLITE DATA IS BEING USED TO AUGMENT CLOUD COVER ABOVE
       12000 FEET.
       "FAIR" INDICATES FEW OR NO CLOUDS BELOW 12,000 FEET WITH NO
       SIGNIFICANT WEATHER AND/OR OBSTRUCTIONS TO VISIBILITY.

  * THESE STATIONS DO NOT REPORT WEATHER SUCH AS RAIN...SNOW OR FOG.

NEZ001>004-019>022-054>056-241900-
NEBRASKA PANHANDLE

CITY           SKY/WX    TMP DP  RH WIND       PRES   REMARKS
SCOTTSBLUFF    SUNNY     72  45  37 SE6       29.64F
6HR MIN TEMP:  38; 6HR MAX TEMP:  72;

ALLIANCE       SUNNY     67  42  40 S18G25    29.66F
6HR MIN TEMP:  33; 6HR MAX TEMP:  67;

CHADRON        SUNNY     69  44  40 S15       29.59F
6HR MIN TEMP:  41; 6HR MAX TEMP:  69;

GORDON         FAIR      65  40  39 S14G20    29.65F
6HR MIN TEMP:  37; 6HR MAX TEMP:  65;

KIMBALL        SUNNY     72  41  33 S6        29.70F
SIDNEY         SUNNY     66  45  46 SW15      29.71F
6HR MIN TEMP:  33; 6HR MAX TEMP:  66;

$$

NEZ057>060-069>072-079>082-241900-
SOUTHWEST NEBRASKA

CITY           SKY/WX    TMP DP  RH WIND       PRES   REMARKS
NORTH PLATTE   SUNNY     61  37  41 E3        29.74F
6HR MIN TEMP:  32; 6HR MAX TEMP:  63;

IMPERIAL       SUNNY     64  41  42 S10       29.74F
6HR MIN TEMP:  37; 6HR MAX TEMP:  64;

LEXINGTON      SUNNY     59  43  55 S7        29.77F
MCCOOK         SUNNY     63  36  36 SW6       29.77F
6HR MIN TEMP:  38; 6HR MAX TEMP:  63;

OGALLALA       SUNNY     66  39  37 S9G16     29.72F
$$

NEZ005>010-023>029-035>040-094-241900-
NORTH CENTRAL NEBRASKA

CITY           SKY/WX    TMP DP  RH WIND       PRES   REMARKS
VALENTINE      SUNNY     63  37  38 SE14G20   29.70F
6HR MIN TEMP:  33; 6HR MAX TEMP:  63;

AINSWORTH      SUNNY     60  44  56 SE8       29.72F
BROKEN BOW     SUNNY     58  41  53 E8        29.75F
6HR MIN TEMP:  38; 6HR MAX TEMP:  58;

O`NEILL        PTSUNNY   59  41  52 S5        29.74F
THEDFORD       SUNNY     62  37  39 S7        29.73F
$$

NEZ041-046>049-061>064-073>077-083>087-241900-
SOUTH CENTRAL NEBRASKA

CITY           SKY/WX    TMP DP  RH WIND       PRES   REMARKS
GRAND ISLAND   SUNNY     59  42  53 CALM      29.76F
6HR MIN TEMP:  44; 6HR MAX TEMP:  60;

AURORA         PTSUNNY   59  41  52 NE3       29.76F
HASTINGS       PTSUNNY   59  42  53 N3        29.78F
6HR MIN TEMP:  45; 6HR MAX TEMP:  60;

HEBRON         PTSUNNY   62  46  55 NW7       29.77S
HOLDREGE       SUNNY     56  41  55 NE3       29.78F
KEARNEY *      MOSUNNY   57  37  47 CALM      29.78F
$$

NEZ011>018-030>034-042>045-241900-
NORTHEAST NEBRASKA

CITY           SKY/WX    TMP DP  RH WIND       PRES   REMARKS
NORFOLK        MOSUNNY   62  44  51 VRB6      29.74F
6HR MIN TEMP:  45; 6HR MAX TEMP:  62;

ALBION         PTSUNNY   60  42  50 W3        29.75F
BLAIR          MOSUNNY   60  47  61 N12       29.73F
FREMONT        PTSUNNY   63  42  46 N8        29.75S
TEKAMAH        PTSUNNY   62  49  62 N9        29.73F
6HR MIN TEMP:  48; 6HR MAX TEMP:  63;

WAYNE          PTSUNNY   60  45  57 N3        29.74F
$$

NEZ050>053-065>068-078-088>093-241900-
SOUTHEAST NEBRASKA

CITY           SKY/WX    TMP DP  RH WIND       PRES   REMARKS
LINCOLN        MOSUNNY   63  44  50 N12       29.75F
6HR MIN TEMP:  48; 6HR MAX TEMP:  65;

OMAHA EPPLEY   MOSUNNY   64  46  52 NW12G21   29.72F
6HR MIN TEMP:  51; 6HR MAX TEMP:  64;

BEATRICE       PTSUNNY   63  46  55 N8        29.75F
FALLS CITY     PTSUNNY   63  48  58 N16G23    29.71F
6HR MIN TEMP:  51; 6HR MAX TEMP:  64;

NEBRASKA CITY  MOSUNNY   64  42  45 N14G20    29.73F
PLATTSMOUTH    MOSUNNY   64  46  52 N8G16     29.73F
$$

NEZ044-045-051>053-067-241900-
OMAHA AREA

CITY           SKY/WX    TMP DP  RH WIND       PRES   REMARKS
OMAHA EPPLEY   MOSUNNY   64  46  52 NW12G21   29.72F
6HR MIN TEMP:  51; 6HR MAX TEMP:  64;

BLAIR          MOSUNNY   60  47  61 N12       29.73F
FREMONT        PTSUNNY   63  42  46 N8        29.75S
MILLARD        MOSUNNY   63  46  55 N7        29.73F
OFFUTT AFB     PTSUNNY   61  47  59 N8        29.72F
PLATTSMOUTH    MOSUNNY   64  46  52 N8G16     29.73F
WAHOO          MOCLDY    61  42  49 N10       29.74S
$$




USA.gov is the U.S. government's official web portal to all federal, state and local government web resources and services.